Wind_Speed
2 4 5 7 5 6 9 4 9 0 7 8 4 6 13 5 8 7 13 16 16 17 18 22 24 26 28 27 28 26 24 19 17 14 14 16 12 14 14 8 6 3 6 6
5 4 8 5 5 1 2 7 7 10 8 3 5 4 6 2 2 3 8 14 14 8 11 21 23 24 27 29 29 27 24 20 17 13 16 16 16 14 14 11 7 5 6 5
5 6 4 4 1 2 3 2 6 3 11 1 7 2 3 4 6 3 4 6 10 14 15 14 22 25 26 29 30 30 27 24 18 15 11 11 14 16 17 12 8 6 5 7
3 5 5 3 4 5 1 10 4 11 4 3 3 5 6 6 10 8 9 6 7 13 12 14 21 24 27 30 30 29 27 27 19 17 12 11 15 13 15 14 12 9 8 6
6 3 4 4 7 5 1 6 5 7 3 2 3 2 3 5 11 10 9 10 10 14 18 17 23 28 29 27 32 29 27 25 22 18 15 16 15 15 15 16 14 11 10 7
8 5 5 8 8 16 14 8 7 5 3 2 3 2 4 5 15 9 9 9 9 7 13 15 19 22 25 27 27 30 28 25 24 20 17 16 16 16 13 15 15 13 12 10
5 4 4 6 10 5 12 6 3 4 2 4 4 2 8 7 9 16 16 13 11 7 9 13 13 19 23 26 28 30 29 26 24 23 20 17 15 16 16 14 17 17 14 13
1 5 3 5 14 13 8 7 5 1 3 1 5 5 4 6 7 12 17 20 16 12 8 14 18 22 25 28 30 31 30 27 24 25 23 19 17 16 17 14 15 16 16 16
2 4 4 4 6 9 4 4 10 2 3 2 3 6 5 6 5 9 16 18 22 21 17 16 20 22 26 29 33 33 33 30 27 27 23 22 20 20 18 17 15 16 15 15
4 2 2 3 5 2 9 8 8 1 3 3 2 3 4 5 4 4 6 15 18 21 23 17 20 23 26 31 35 33 32 31 29 27 27 25 23 21 19 17 16 19 17 15
3 3 6 3 3 8 1 1 6 6 3 4 4 6 7 3 7 6 4 4 6 9 14 18 21 27 33 31 31 34 33 31 30 26 28 25 25 22 20 19 18 17 18 15
1 4 2 3 5 2 5 3 5 5 4 2 3 4 6 4 8 8 4 7 8 7 8 9 14 21 23 28 29 33 35 31 30 28 26 26 23 23 20 20 18 17 16 17
3 3 3 7 6 6 7 5 3 5 3 4 5 4 2 2 5 2 2 3 7 7 9 8 10 16 21 25 26 28 29 31 30 27 25 23 23 22 21 20 19 17 16 16
6 2 5 5 4 3 2 5 1 5 4 3 4 2 2 5 4 3 6 6 5 6 12 12 10 13 20 26 28 28 27 30 30 27 24 24 23 23 21 20 18 15 16 18
4 3 4 1 5 1 7 6 6 5 2 3 5 4 5 6 6 7 6 8 6 4 7 1 7 10 17 16 19 23 27 29 29 23 21 16 15 18 19 19 19 17 16 17
4 1 1 4 9 11 11 11 10 6 7 7 5 6 2 3 6 9 8 7 11 12 11 12 10 13 10 7 5 11 16 18 16 19 16 11 6 10 11 14 17 18 19 17
3 2 3 1 2 7 8 6 7 4 6 3 5 3 2 6 9 8 7 7 7 8 9 10 10 13 15 9 3 7 10 11 10 11 13 13 3 4 1 4 9 15 16 19
3 3 2 1 3 2 3 2 1 10 6 8 7 3 5 7 8 9 9 9 9 8 7 6 13 17 21 14 9 7 5 8 10 12 12 12 6 1 5 8 9 9 15 16
3 4 3 3 3 0 2 4 3 1 1 1 4 6 3 4 2 5 9 9 8 7 9 10 11 14 22 20 11 8 8 6 8 7 6 8 5 8 10 13 14 14 19 21
6 7 4 2 3 3 5 5 5 2 3 5 3 4 5 2 3 0 5 7 9 11 11 11 11 13 16 12 15 14 14 14 16 14 8 6 4 6 6 6 7 10 10 11
4 4 4 2 3 4 4 6 6 3 6 0 4 4 2 2 1 5 7 6 6 6 7 6 10 13 13 15 18 16 13 14 12 13 12 12 9 8 7 8 10 11 12 13
3 4 1 3 4 4 3 3 3 4 1 3 3 2 5 8 7 7 6 5 6 6 6 6 10 13 13 14 17 18 16 12 11 13 14 13 13 12 10 10 10 11 14 15
1 5 4 5 5 4 3 2 2 1 1 4 5 4 7 7 5 7 8 5 6 7 8 7 11 11 11 10 11 14 12 13 14 14 12 13 14 14 14 15 15 16 16 18
2 3 4 3 4 4 4 3 0 3 4 3 3 7 7 7 7 6 5 6 6 6 7 9 12 12 10 11 13 15 13 12 13 14 13 12 13 13 14 14 14 14 15 14
4 4 5 2 4 4 7 6 2 3 5 5 6 4 7 10 7 6 6 8 12 13 11 10 12 12 12 11 12 13 14 14 14 13 12 11 13 12 12 11 11 10 10 10
4 7 5 6 8 6 5 2 8 4 2 3 7 5 5 5 8 9 8 14 16 14 12 12 13 15 16 16 15 13 12 12 13 13 12 12 11 11 12 12 14 10 8 6
Wind_Direction
129 96 206 223 127 157 138 166 187 100 61 307 336 159 172 158 136 151 171 171 175 187 178 172 173 179 187 187 184 185 182 185 177 179 190 189 210 202 198 185 172 148 167 104
28 218 226 141 139 192 236 241 172 130 197 208 41 231 311 86 14 166 174 178 174 146 159 169 172 178 186 190 187 185 181 180 177 184 189 201 192 192 203 202 190 149 136 134
160 232 107 136 171 229 292 208 187 136 158 49 135 56 296 93 294 244 141 160 160 159 163 167 172 182 188 194 191 183 178 176 182 175 167 174 187 206 199 206 205 207 166 160
243 257 220 165 222 172 187 241 121 138 135 171 249 184 215 190 206 210 176 133 166 163 168 169 172 179 193 198 191 191 185 181 187 199 193 188 196 180 197 200 208 198 194 193
248 271 191 170 208 159 272 32 95 113 107 109 211 139 228 157 201 202 191 165 174 176 170 178 179 181 190 194 196 194 193 192 186 191 189 189 185 191 192 203 209 209 214 216
237 225 190 208 133 155 115 89 44 46 85 352 154 110 256 198 218 182 178 161 171 179 175 177 179 176 176 188 192 195 195 197 193 193 193 193 198 197 199 212 218 215 216 218
312 232 217 141 87 82 119 122 28 8 21 236 86 86 244 199 208 186 178 170 181 188 169 171 162 168 173 181 192 196 198 202 201 198 198 203 209 214 216 226 216 218 220 222
247 344 205 160 150 168 194 145 130 135 210 269 41 240 246 228 256 221 179 167 167 174 191 187 182 177 181 183 194 198 200 208 207 206 208 210 217 224 225 220 224 225 227 228
182 281 293 108 139 147 192 120 122 305 263 96 215 277 289 221 328 148 160 161 178 180 183 187 186 186 182 184 194 203 205 210 213 212 216 217 220 226 235 235 233 232 232 234
240 281 304 264 104 347 167 166 112 311 296 255 275 272 247 300 79 1 202 191 187 181 179 188 174 182 187 192 198 203 212 212 214 216 219 223 224 225 230 236 239 226 230 236
153 128 295 11 2 170 106 177 56 124 187 179 150 255 348 335 136 111 118 132 193 198 196 190 183 184 184 193 194 202 209 211 215 218 221 227 230 231 231 237 240 234 230 236
151 153 107 203 302 262 91 123 129 120 203 241 160 260 335 77 100 114 160 186 170 169 179 194 188 183 183 187 193 198 207 211 216 216 221 225 231 230 231 234 239 241 236 228
330 25 39 352 3 3 53 316 90 108 80 190 137 253 68 90 83 45 222 186 185 160 157 170 168 182 188 189 191 192 201 212 217 215 219 219 225 232 234 233 237 241 236 231
100 36 113 158 200 285 5 333 337 133 110 175 212 244 63 29 57 30 8 353 290 242 167 171 169 184 190 192 194 196 200 205 209 209 218 219 225 233 240 240 231 238 233 230
75 69 90 4 82 261 41 29 30 97 208 152 181 105 11 12 359 356 336 336 39 52 25 305 176 170 176 183 179 188 200 204 200 208 207 206 220 234 246 248 243 243 247 240
7 90 215 79 120 85 53 19 30 40 69 54 77 70 38 15 48 34 38 39 51 58 74 71 71 65 59 53 106 156 182 189 190 194 196 204 235 239 244 244 254 254 247 243
57 87 47 123 4 81 57 338 43 47 43 122 78 263 355 44 38 17 28 47 62 75 80 90 100 96 85 80 168 144 164 173 177 178 186 195 186 151 67 300 265 257 256 255
111 74 74 271 86 50 228 259 272 88 43 88 96 63 73 85 75 39 24 35 31 27 26 103 112 118 120 109 133 167 184 188 185 164 153 157 178 124 10 347 341 303 294 294
82 119 64 101 69 347 26 348 332 348 106 303 128 129 147 126 101 66 33 41 30 10 7 18 56 121 114 100 129 160 151 147 139 147 166 193 195 260 302 310 293 288 277 266
48 70 107 89 99 170 234 280 331 83 336 175 132 157 154 262 29 140 58 39 39 23 24 41 43 67 93 116 135 161 139 125 121 126 142 103 122 237 255 249 216 215 210 207
3 3 95 76 117 279 245 293 313 111 227 163 152 174 156 223 178 123 109 82 69 57 35 55 101 94 110 134 140 124 120 120 126 133 134 131 132 130 151 165 162 168 163 159
149 127 162 77 85 267 49 298 199 212 8 192 157 138 102 116 112 105 94 88 90 79 63 81 98 105 124 131 139 135 133 134 134 134 137 136 140 146 150 146 141 144 152 146
30 175 175 162 212 247 278 263 8 112 95 181 169 159 145 127 137 137 131 126 107 101 91 99 110 106 103 115 127 120 122 130 129 128 123 129 134 143 143 138 139 141 145 141
347 154 106 90 252 247 282 316 294 222 242 237 163 148 150 144 149 139 132 125 114 112 107 120 120 109 99 108 120 121 128 133 128 118 116 120 121 123 133 138 142 142 143 142
198 137 143 282 290 331 281 244 106 282 300 184 119 145 153 146 151 152 148 148 148 144 145 151 142 136 128 130 121 123 128 136 127 118 111 106 108 106 106 112 121 135 142 151
183 174 157 216 209 170 227 141 156 169 185 182 140 128 131 157 157 154 155 166 159 156 154 154 153 149 147 145 136 136 136 139 133 127 127 121 121 123 121 117 110 110 102 114
Height
775 793 800 786 788 789 795 804 811 806 807 809 807 803 803 798 797 801 803 802 807 808 811 817 821 824 827 830 832 833 837 839 842 846 848 850 853 856 857 859 861 862 862 863
789 799 779 776 779 782 783 792 800 810 806 806 809 809 803 799 799 795 800 801 803 811 812 817 821 824 826 829 830 833 835 839 842 845 846 849 852 856 857 859 861 863 863 863
795 782 768 775 783 785 786 792 799 795 805 805 807 817 811 806 802 798 798 797 802 807 811 815 820 823 826 829 830 831 834 837 842 844 846 849 852 854 857 859 861 863 864 865
784 771 773 780 785 783 799 775 781 798 807 821 809 827 815 810 809 800 796 800 804 805 810 812 817 822 824 827 830 833 834 837 840 842 845 848 850 853 855 858 860 863 864 866
787 773 777 782 776 773 791 779 787 799 818 817 813 822 805 802 805 798 797 797 801 801 803 809 812 815 821 826 828 832 835 837 839 842 845 847 849 852 855 857 860 862 863 865
776 758 763 767 760 765 777 795 802 811 820 831 812 817 811 810 789 792 792 793 799 802 803 807 811 815 817 823 828 831 834 837 839 841 843 846 849 852 854 856 857 859 861 864
774 764 752 750 776 776 779 803 837 837 829 833 815 822 800 778 774 772 781 790 796 801 803 805 809 813 817 820 824 829 833 836 838 840 843 845 848 850 852 854 855 856 859 861
794 792 756 747 763 785 789 792 819 835 836 819 815 824 789 768 764 762 767 776 788 799 802 803 806 809 813 817 821 826 831 834 836 838 840 844 847 850 851 852 854 855 856 858
791 783 750 741 747 761 779 799 781 815 815 827 824 797 769 763 764 758 767 775 781 785 793 796 801 805 809 812 816 821 826 830 834 836 840 842 845 847 848 850 852 853 854 856
770 786 756 751 746 757 763 768 804 829 832 826 820 802 791 775 776 772 777 772 771 773 781 790 793 800 805 808 812 817 821 825 829 833 837 840 843 846 847 849 849 850 852 853
766 781 774 760 768 772 773 779 791 796 806 817 831 815 775 776 771 778 779 780 780 780 783 782 788 792 795 804 808 812 816 821 826 830 834 837 841 843 845 845 847 848 849 850
761 784 790 774 763 760 763 777 789 811 806 813 816 808 779 778 774 773 777 776 775 775 779 785 789 792 795 798 803 805 812 817 822 826 831 834 838 841 842 844 845 847 848 847
759 786 804 792 778 768 779 774 778 801 809 816 816 809 783 779 779 778 778 774 772 771 775 781 787 790 794 796 800 805 809 814 819 824 828 832 835 838 840 841 843 844 846 846
759 787 794 813 804 797 784 778 775 788 808 807 808 796 790 790 787 787 782 778 776 771 767 773 781 787 789 792 797 801 805 810 815 820 825 828 832 835 838 839 841 842 843 844
767 788 786 788 785 787 786 785 783 789 790 792 796 798 795 798 793 789 786 780 776 777 778 779 779 782 787 792 796 800 803 807 812 818 823 826 828 831 833 836 838 839 842 843
776 791 785 794 786 782 792 787 782 782 784 792 796 802 796 795 791 792 789 787 784 782 783 784 787 791 798 800 805 804 806 810 815 818 820 824 825 827 829 831 834 836 839 841
784 791 798 799 799 789 806 801 794 791 789 790 806 803 797 800 797 796 795 792 791 789 789 788 788 791 796 801 806 809 811 812 816 817 820 821 825 824 826 828 831 834 836 839
790 797 807 805 801 823 803 795 789 794 794 792 797 796 796 798 801 801 799 798 796 795 795 792 791 790 792 802 806 809 812 812 814 815 819 820 822 822 823 825 828 830 834 837
784 801 815 816 828 812 802 796 797 796 802 794 797 795 796 800 802 805 806 805 804 800 797 795 794 794 790 794 802 807 809 813 814 816 817 817 815 818 818 823 824 827 833 835
789 795 805 821 818 826 811 794 788 787 820 794 793 799 799 801 812 814 810 810 809 805 802 800 797 795 796 800 795 806 805 802 809 813 815 815 815 819 820 824 826 830 831 832
814 816 819 825 828 819 797 793 788 812 818 791 789 794 798 806 810 810 812 813 813 812 810 808 806 804 807 808 808 810 809 811 814 813 814 815 821 824 828 831 831 830 829 831
814 823 825 830 830 824 797 793 799 800 794 791 792 794 802 806 810 814 814 815 817 815 815 813 812 812 812 812 811 814 817 819 821 820 820 822 824 827 830 832 833 833 833 834
816 814 818 820 821 806 800 798 796 796 794 793 793 797 801 804 808 814 817 816 816 818 819 819 817 816 817 817 819 820 822 823 825 827 828 828 827 830 831 831 835 837 838 837
803 805 814 814 806 802 798 797 799 799 796 794 794 797 800 804 809 813 817 820 820 818 819 821 821 822 821 821 823 824 826 829 831 832 833 833 832 834 834 834 836 839 839 840
803 802 813 814 806 804 799 797 798 797 795 794 794 796 799 804 808 810 814 817 821 822 822 822 823 824 825 824 825 827 827 829 831 832 834 835 835 835 837 837 836 840 841 841
797 801 810 811 795 796 794 791 796 796 796 796 794 800 803 804 807 810 813 816 818 820 822 825 825 828 830 831 830 830 830 832 833 834 834 835 837 839 838 840 840 843 844 844